Location: Amarillo Post Office Jordan Station
(35.1907°N, 101.9342°W)
Time: 18:02:55
(UTC+00:00)

Atlas Centaur 2 - Pass Details

Date: 24 January 2021
Orbit: 459 x 1309 km, 30.4° (Epoch: 01 March)

Event Time Altitude Azimuth Distance (km) Brightness Sun altitude
Exits shadow 13:11:00 - 266° (W) 3,256 4.6 -8.7°
Reaches altitude 10° 13:11:35 10° 265° (W) 3,069 4.5 -8.6°
Maximum altitude 13:19:16 57° 189° (S) 1,467 3.5 -7.1°
Drops below altitude 10° 13:27:35 10° 114° (ESE) 3,315 7.2 -5.5°
Sets 13:30:36 0° 110° (ESE) 4,262 9.0 -4.9°
